This demonstration page uses our WeatherBlox Daily Observations layout. Learn more.

Left ArrowRight Arrow

44.8408, -93.29828

Hourly Observations for November 12, 2020

Temp ( °F °C ) Dew Point ( °F °C ) Humidity (%) Winds ( mph kmh ) Pressure ( in mb ) Visibility ( mi km ) Precip ( " mm )
12:53 am 00:53 Clear 30 -1.1 25 -3.9 82 82 WSW 6 9 30.04 1017 10 16 0.00 0.00
1:53 am 01:53 Clear 29 -1.7 25 -3.9 85 85 SW 6 9 30.04 1017 9 14 0.00 0.00
2:53 am 02:53 Clear 28 -2.2 24 -4.4 85 85 SW 5 7 30.05 1018 9 14 0.00 0.00
3:53 am 03:53 Mostly Clear 28 -2.2 24 -4.4 85 85 WSW 7 11 30.07 1018 9 14 0.00 0.00
4:53 am 04:53 Mostly Cloudy 26 -3.3 23 -5 88 88 Calm 30.06 1018 9 14 0.00 0.00
5:53 am 05:53 Mostly Cloudy 28 -2.2 19 -7.2 69 69 N 3 6 30.03 1017 10 16 0.00 0.00
6:42 am 06:42 Cloudy 29 -1.7 20 -6.7 69 69 W 8 13 30.10 1019 10 16 0.00 0.00
6:53 am 06:53 Cloudy 29 -1.7 20 -6.7 69 69 WNW 6 9 30.07 1018 10 16 0.00 0.00
7:53 am 07:53 Cloudy 29 -1.7 20 -6.7 69 69 WNW 5 7 30.08 1019 10 16 0.00 0.00
8:53 am 08:53 Cloudy 29 -1.7 20 -6.7 69 69 NW 6 9 30.09 1019 10 16 0.00 0.00
9:53 am 09:53 Cloudy 30 -1.1 21 -6.1 69 69 WNW 9 15 30.10 1019 10 16 0.00 0.00
10:53 am 10:53 Cloudy with Light Snow 29 -1.7 23 -5 78 78 WNW 9 15 30.11 1020 5 8 0.00 0.00
10:59 am 10:59 Cloudy with Light Snow 29 -1.7 24 -4.4 82 82 W 13 20 30.13 1020 2 3 0.00 0.00
11:02 am 11:02 Cloudy with Light Snow 29 -1.7 24 -4.4 82 82 WNW 10 17 30.13 1020 2 2 0.00 0.00
11:09 am 11:09 Cloudy with Light Snow 28 -2.2 24 -4.4 85 85 NW 9 15 30.12 1020 1 1 0.00 0.00
11:21 am 11:21 Mostly Cloudy with Snow 28 -2.2 26 -3.3 92 92 WNW 7 11 30.12 1020 0 0 0.00 0.00
11:32 am 11:32 Mostly Cloudy with Snow 28 -2.2 26 -3.3 92 92 NW 5 7 30.12 1020 0 0 0.02 0.51
11:40 am 11:40 Mostly Cloudy with Snow 28 -2.2 26 -3.3 92 92 WNW 6 9 30.12 1020 0 0 0.03 0.76
11:53 am 11:53 Mostly Cloudy with Snow 28 -2.2 26 -3.3 92 92 W 3 6 30.09 1019 0 0 0.06 1.52
12:27 pm 12:27 Cloudy with Light Snow 28 -2.2 26 -3.3 92 92 WNW 7 11 30.11 1020 1 1 0.04 1.02
12:34 pm 12:34 Cloudy with Light Snow 27 -2.8 25 -3.9 92 92 NW 8 13 30.12 1020 1 1 0.04 1.02
12:41 pm 12:41 Cloudy with Snow 27 -2.8 25 -3.9 92 92 NW 6 9 30.12 1020 1 1 0.05 1.27
12:53 pm 12:53 Cloudy with Snow 27 -2.8 25 -3.9 92 92 WNW 5 7 30.09 1019 1 1 0.06 1.52
1:23 pm 13:23 Cloudy with Light Snow 28 -2.2 26 -3.3 92 92 VRB 5 7 30.11 1020 2 2 0.02 0.51
1:27 pm 13:27 Cloudy with Light Snow 28 -2.2 26 -3.3 92 92 W 5 7 30.11 1020 1 2 0.02 0.51
1:31 pm 13:31 Cloudy with Snow 28 -2.2 26 -3.3 92 92 VRB 3 6 30.11 1020 1 1 0.02 0.51
1:49 pm 13:49 Cloudy with Light Snow 27 -3 25 -4 93 93 W 8 13 30.11 1020 1 1 0.03 0.76
1:53 pm 13:53 Cloudy with Snow 27 -2.8 24 -4.4 89 89 W 8 13 30.09 1019 1 1 0.03 0.76
1:59 pm 13:59 Cloudy with Light Snow 27 -2.8 25 -3.9 92 92 WNW 7 11 30.11 1019 2 3 0.01 0.25
2:07 pm 14:07 Cloudy with Light Snow 27 -2.8 25 -3.9 92 92 WNW 5 7 30.11 1019 4 6 0.01 0.25
2:24 pm 14:24 Cloudy with Light Snow 27 -2.8 24 -4.4 89 89 WNW 7 11 30.11 1019 8 13 0.01 0.25
2:33 pm 14:33 Cloudy with Light Snow 27 -2.8 25 -3.9 92 92 WNW 8 13 30.10 1019 8 13 0.01 0.25
2:53 pm 14:53 Cloudy 27 -2.8 23 -5 85 85 WNW 8 13 30.07 1018 10 16 0.01 0.25
3:05 pm 15:05 Cloudy 28 -2.2 23 -5 81 81 WNW 7 11 30.09 1019 10 16 0.00 0.00
3:53 pm 15:53 Mostly Cloudy 27 -2.8 19 -7.2 72 72 NW 9 15 30.10 1019 10 16 0.00 0.00
4:53 pm 16:53 Mostly Cloudy 24 -4.4 17 -8.3 75 75 WNW 12 19 30.13 1020 10 16 0.00 0.00
5:53 pm 17:53 Mostly Cloudy 23 -5 16 -8.9 74 74 WNW 10 17 30.14 1021 10 16 0.00 0.00
6:53 pm 18:53 Mostly Cloudy 24 -4.4 15 -9.4 68 68 NW 14 22 30.16 1021 10 16 0.00 0.00
7:53 pm 19:53 Cloudy 24 -4.4 16 -8.9 71 71 WNW 12 19 30.17 1022 10 16 0.00 0.00
8:53 pm 20:53 Cloudy 24 -4.4 16 -8.9 71 71 WNW 8 13 30.18 1022 10 16 0.00 0.00
9:24 pm 21:24 Cloudy 25 -3.9 15 -9.4 66 66 WNW 9 15 30.21 1023 10 16 0.00 0.00
9:53 pm 21:53 Cloudy 24 -4.4 15 -9.4 68 68 WNW 14 22 30.19 1022 10 16 0.00 0.00
10:53 pm 22:53 Partly Cloudy 23 -5 13 -10.6 65 65 WNW 8 13 30.19 1023 10 16 0.00 0.00
11:53 pm 23:53 Mostly Clear 22 -5.6 14 -10 71 71 W 6 9 30.20 1023 10 16 0.00 0.00

Powered by AerisWeather